| time (UTC) | temp F | wind direction | speed MPH | gust MPH | rain 1hr in | rain 24hr in | rain mn in | humidity % | barometer mb |
| 20260510053009 | 47 | 287 | 0.0 | 2.0 | 0.00 | 0.50 | 0.01 | 99 | 1014.0 |
| 20260510051509 | 47 | 314 | 0.0 | 2.0 | 0.00 | 0.50 | 0.01 | 99 | 1013.9 |
| 20260510050008 | 46 | 95 | 0.0 | 2.0 | 0.00 | 0.50 | 0.01 | 99 | 1013.9 |
| 20260510044508 | 46 | 124 | 0.0 | 2.0 | 0.00 | 0.50 | 0.01 | 99 | 1013.7 |
| 20260510043009 | 46 | 97 | 2.0 | 2.0 | 0.00 | 0.50 | 0.01 | 99 | 1013.9 |
| 20260510041508 | 47 | 27 | 2.0 | 2.0 | 0.00 | 0.50 | 0.01 | 99 | 1013.9 |
| 20260510040009 | 48 | 337 | 1.0 | 4.0 | 0.00 | 0.50 | 0.01 | 99 | 1014.0 |
| 20260510034508 | 48 | 0 | 0.0 | 0.0 | 0.00 | 0.50 | 0.01 | 99 | 1014.0 |
| 20260510031509 | 49 | 270 | 0.0 | 2.0 | 0.00 | 0.50 | 0.01 | 99 | 1014.2 |
| 20260510030009 | 49 | 270 | 0.0 | 2.0 | 0.00 | 0.50 | 0.01 | 99 | 1014.2 |
| 20260510020009 | 50 | 327 | 2.0 | 4.0 | 0.00 | 0.50 | 0.01 | 99 | 1014.1 |
| 20260510014508 | 50 | 291 | 2.0 | 2.0 | 0.00 | 0.50 | 0.01 | 99 | 1014.2 |
| 20260510011508 | 51 | 289 | 1.0 | 2.0 | 0.00 | 0.50 | 0.01 | 99 | 1014.7 |
| 20260510004508 | 52 | 351 | 0.0 | 2.0 | 0.00 | 0.50 | 0.01 | 99 | 1015.1 |
| 20260510001509 | 53 | 294 | 1.0 | 2.0 | 0.00 | 0.50 | 0.01 | 99 | 1015.5 |
| 20260510000009 | 53 | 304 | 0.0 | 2.0 | 0.00 | 0.50 | 0.01 | 99 | 1015.7 |
| 20260509234508 | 53 | 278 | 0.0 | 2.0 | 0.00 | 0.50 | 0.01 | 99 | 1015.9 |
| 20260509233008 | 53 | 266 | 0.0 | 2.0 | 0.00 | 0.50 | 0.01 | 99 | 1016.1 |
| 20260509231508 | 53 | 314 | 0.0 | 2.0 | 0.01 | 0.50 | 0.01 | 99 | 1016.4 |
| 20260509230009 | 53 | 285 | 2.0 | 4.0 | 0.01 | 0.50 | 0.01 | 99 | 1016.5 |
| 20260509224509 | 54 | 273 | 2.0 | 4.0 | 0.01 | 0.50 | 0.01 | 99 | 1016.5 |
| 20260509223010 | 54 | 313 | 1.0 | 2.0 | 0.01 | 0.50 | 0.01 | 99 | 1016.7 |
| 20260509221508 | 54 | 0 | 0.0 | 0.0 | 0.00 | 0.48 | 0.00 | 99 | 1016.5 |
| 20260509220011 | 54 | 248 | 0.0 | 2.0 | 0.00 | 0.48 | 0.00 | 99 | 1016.6 |
| 20260509214509 | 54 | 304 | 0.0 | 2.0 | 0.01 | 0.48 | 0.48 | 99 | 1016.4 |
| 20260509213008 | 54 | 6 | 1.0 | 2.0 | 0.01 | 0.48 | 0.48 | 99 | 1016.5 |
| 20260509211508 | 54 | 349 | 2.0 | 4.0 | 0.02 | 0.48 | 0.48 | 99 | 1016.3 |
| 20260509210009 | 54 | 322 | 0.0 | 2.0 | 0.02 | 0.48 | 0.48 | 99 | 1016.2 |
| 20260509204508 | 54 | 318 | 1.0 | 2.0 | 0.01 | 0.47 | 0.47 | 99 | 1016.1 |
| 20260509203008 | 54 | 333 | 1.0 | 4.0 | 0.02 | 0.47 | 0.47 | 99 | 1015.5 |
| 20260509201508 | 54 | 283 | 1.0 | 2.0 | 0.02 | 0.46 | 0.46 | 99 | 1015.3 |
| 20260509200009 | 54 | 273 | 1.0 | 2.0 | 0.05 | 0.46 | 0.46 | 99 | 1015.4 |
| 20260509194508 | 54 | 280 | 1.0 | 2.0 | 0.07 | 0.46 | 0.46 | 99 | 1015.1 |
| 20260509193009 | 54 | 251 | 0.0 | 2.0 | 0.09 | 0.45 | 0.45 | 99 | 1014.8 |
| 20260509191508 | 54 | 244 | 0.0 | 2.0 | 0.15 | 0.44 | 0.44 | 99 | 1014.3 |
| 20260509190009 | 54 | 240 | 2.0 | 2.0 | 0.17 | 0.41 | 0.41 | 99 | 1014.4 |
| 20260509181508 | 54 | 145 | 2.0 | 2.0 | 0.17 | 0.28 | 0.28 | 99 | 1015.6 |
| 20260509180008 | 55 | 45 | 0.0 | 2.0 | 0.18 | 0.24 | 0.24 | 99 | 1015.5 |
| 20260509173008 | 56 | 88 | 1.0 | 4.0 | 0.15 | 0.15 | 0.15 | 99 | 1015.7 |
| 20260509171508 | 57 | 331 | 2.0 | 2.0 | 0.12 | 0.12 | 0.12 | 99 | 1015.7 |
| 20260509170008 | 57 | 118 | 2.0 | 4.0 | 0.05 | 0.05 | 0.05 | 99 | 1015.9 |
| 20260509163008 | 58 | 153 | 5.0 | 8.0 | 0.00 | 0.00 | 0.00 | 97 | 1015.3 |
| 20260509161508 | 59 | 138 | 4.0 | 9.0 | 0.00 | 0.00 | 0.00 | 95 | 1014.7 |
| 20260509160008 | 60 | 127 | 5.0 | 7.0 | 0.00 | 0.00 | 0.00 | 92 | 1014.6 |
| 20260509154507 | 60 | 115 | 3.0 | 7.0 | 0.00 | 0.00 | 0.00 | 91 | 1014.8 |
| 20260509153009 | 61 | 119 | 5.0 | 9.0 | 0.00 | 0.00 | 0.00 | 90 | 1014.9 |
| 20260509151508 | 61 | 113 | 6.0 | 11.0 | 0.00 | 0.00 | 0.00 | 90 | 1015.0 |
| 20260509150008 | 62 | 133 | 4.0 | 6.0 | 0.00 | 0.00 | 0.00 | 84 | 1015.8 |
| 20260509144508 | 64 | 121 | 1.0 | 2.0 | 0.00 | 0.00 | 0.00 | 80 | 1015.3 |
| 20260509143008 | 64 | 138 | 1.0 | 4.0 | 0.00 | 0.00 | 0.00 | 81 | 1016.0 |
| 20260509141508 | 63 | 119 | 4.0 | 8.0 | 0.00 | 0.00 | 0.00 | 83 | 1016.1 |
| 20260509140008 | 63 | 117 | 2.0 | 8.0 | 0.00 | 0.00 | 0.00 | 83 | 1015.9 |
| 20260509131508 | 63 | 105 | 0.0 | 4.0 | 0.00 | 0.00 | 0.00 | 85 | 1015.9 |
| 20260509124507 | 61 | 100 | 6.0 | 11.0 | 0.00 | 0.00 | 0.00 | 87 | 1016.4 |
| 20260509121508 | 62 | 103 | 8.0 | 11.0 | 0.00 | 0.00 | 0.00 | 84 | 1017.1 |
| 20260509120008 | 62 | 115 | 11.0 | 15.0 | 0.00 | 0.00 | 0.00 | 83 | 1017.2 |
| 20260509113008 | 64 | 113 | 7.0 | 14.0 | 0.00 | 0.00 | 0.00 | 78 | 1017.1 |
| 20260509110008 | 63 | 109 | 8.0 | 14.0 | 0.00 | 0.00 | 0.00 | 80 | 1017.2 |
| 20260509104507 | 64 | 106 | 8.0 | 13.0 | 0.00 | 0.00 | 0.00 | 77 | 1017.1 |
| 20260509103008 | 65 | 90 | 4.0 | 13.0 | 0.00 | 0.00 | 0.00 | 72 | 1017.6 |
| 20260509101507 | 65 | 103 | 6.0 | 13.0 | 0.00 | 0.00 | 0.00 | 67 | 1017.1 |
| 20260509094507 | 66 | 102 | 3.0 | 6.0 | 0.00 | 0.00 | 0.00 | 70 | 1017.1 |
| 20260509093008 | 67 | 210 | 1.0 | 6.0 | 0.00 | 0.00 | 0.00 | 69 | 1016.9 |
| 20260509084508 | 64 | 55 | 1.0 | 4.0 | 0.00 | 0.00 | 0.00 | 75 | 1016.7 |
| 20260509083008 | 62 | 122 | 2.0 | 2.0 | 0.00 | 0.00 | 0.00 | 81 | 1017.0 |
| 20260509081507 | 60 | 194 | 1.0 | 4.0 | 0.00 | 0.00 | 0.00 | 85 | 1017.2 |
| 20260509074507 | 60 | 89 | 0.0 | 2.0 | 0.00 | 0.00 | 0.00 | 83 | 1017.0 |
| 20260509073008 | 59 | 333 | 0.0 | 2.0 | 0.00 | 0.00 | 0.00 | 87 | 1017.4 |
| 20260509071507 | 57 | 297 | 1.0 | 2.0 | 0.00 | 0.00 | 0.00 | 92 | 1017.4 |
| 20260509070007 | 55 | 279 | 2.0 | 2.0 | 0.00 | 0.00 | 0.00 | 96 | 1017.5 |
| 20260509064508 | 54 | 270 | 0.0 | 2.0 | 0.00 | 0.00 | 0.00 | 97 | 1017.4 |
| 20260509063007 | 53 | 287 | 0.0 | 2.0 | 0.00 | 0.00 | 0.00 | 99 | 1017.5 |
| 20260509061507 | 51 | 231 | 0.0 | 4.0 | 0.00 | 0.00 | 0.00 | 99 | 1017.6 |
| 20260509060008 | 50 | 257 | 1.0 | 4.0 | 0.00 | 0.00 | 0.00 | 99 | 1017.8 |
| 20260509054507 | 49 | 268 | 0.0 | 2.0 | 0.00 | 0.00 | 0.00 | 99 | 1017.6 |